Torna al catalogo

STARLINK-37893

AttivoComunicazioniSSO
NORAD 69486·PAYLOAD·🇺🇸 United States

Lanciato Jun 11, 2026 da Vandenberg Space Force Base

Loading…

Prossimi Passaggi (prossime 24 ore)

TLE

AggiornatoSource: CelesTrak SupGP

Epoca: Sep 14, 2026, 23:05 UTC

1 69486C 26131J   26257.96229167  .00043580  00000+0  13529-2 0  2578
2 69486  97.2841 278.8940 0001555  89.4565  67.5824 15.33415733    15

Traccia STARLINK-37893 in tempo reale con AllMySat

Download on the App Store